Location: Hickory_Viewmont
(35.7830°N, 81.3170°W)
Time: 20:54:46
(UTC-04:00)

Daily predictions for brighter satellites

Satellite Brightness Start Highest point End
(mag) Time Altitude Azimuth Time Altitude Azimuth Time Altitude Azimuth
Cosmos 1898 Rocket 4.5 19:58:53 10° SSW 20:04:04 54° WNW 20:09:15 10° N
Delta 2 Rocket 3.8 20:01:00 10° W 20:06:02 70° SSW 20:10:26 10° ESE
METEOR-M 4.2 20:04:03 10° SSE 20:09:23 87° WSW 20:14:46 10° NNW
COSMOS 2406 3.8 20:05:43 10° NNW 20:11:24 65° WSW 20:17:01 10° S
Cosmos 1125 Rocket 4.2 20:08:12 10° SSE 20:12:42 31° E 20:17:14 10° NE
Resurs 01 Rocket 2.4 20:09:28 10° SE 20:13:22 32° ENE 20:17:17 10° N
Meteor 2-5 Rocket 4.1 20:08:04 10° NNW 20:13:49 75° W 20:19:39 10° S
Cosmos 1766 3.2 20:10:45 10° S 20:14:34 65° E 20:18:26 10° NNE
Cosmos 1605 Rocket 4.2 20:12:42 10° SSE 20:18:43 52° E 20:24:49 10° NNE
HJ-1C 3.4 20:24:28 10° SSE 20:27:49 66° ENE 20:31:13 10° N
SeaSat 1 2.5 20:23:09 10° SE 20:28:00 64° ENE 20:32:53 10° NNW
Cosmos 1674 4.3 20:28:42 10° NE 20:31:07 16° ENE 20:31:53 15° E
Cosmos 2123 Rocket 4.0 20:29:34 10° N 20:35:55 76° E 20:42:09 10° S
SL-27 R/B 2.8 20:34:36 10° NNW 20:38:12 70° WSW 20:41:48 10° S
Cosmos 2344 4.2 20:32:38 10° SW 20:40:11 61° NW 20:48:31 10° NNE
RESURS DK-1 2.5 20:36:05 10° NNW 20:40:13 77° WSW 20:44:20 10° SSE
CZ-2D R/B 3.5 20:38:20 10° SSE 20:42:02 46° ENE 20:45:46 10° N
CZ-3B DEB 4.3 20:33:09 10° WSW 20:44:36 44° NW 20:50:08 10° NNE
Cosmos 1805 3.1 20:42:41 10° S 20:46:34 81° E 20:50:29 10° N
Meteor 1-29 3.9 20:44:36 10° NE 20:47:37 27° E 20:48:19 25° ESE
In-Cosmos 22 4.0 20:42:31 10° N 20:47:50 82° E 20:53:06 10° S
GPS 2-05 Rocket1 3.0 20:46:18 10° WSW 20:49:49 58° SSE 20:51:22 29° E
ALOS 2.9 20:46:43 10° S 20:51:17 57° W 20:55:55 10° NNW
Cosmos 1818 3.8 20:46:04 10° NNW 20:51:22 50° ENE 20:54:41 22° ESE
COSMOS 2487 3.5 20:49:57 10° N 20:53:01 27° ENE 20:53:16 26° ENE
Resurs 1-3 3.5 20:49:19 10° SSE 20:53:40 79° ENE 20:58:05 10° N
Meteor 1-4 Rocket 2.4 20:54:30 10° S 20:57:59 87° W 21:01:28 10° N
Yuri Rocket 4.4 20:54:27 10° WSW 20:57:59 25° S 20:59:42 19° SSE
Cosmos 1269 Rocket 4.3 20:52:56 10° N 20:58:02 46° ENE 21:00:49 24° SE
Timation 1 Rocket 4.5 20:52:59 10° SSW 20:59:00 80° WNW 21:05:03 10° NNE
FENGYUN 3A 4.4 20:55:30 10° S 21:00:46 54° W 21:06:04 10° NNW
Cosmos 1470 3.1 21:00:37 23° SSE 21:02:36 41° E 21:06:22 10° NNE
Timation 2 Rocket 4.4 20:57:00 10° N 21:02:53 40° ENE 21:05:26 28° ESE
Cosmos 1833 Rocket 3.1 20:58:03 10° N 21:03:23 42° ENE 21:05:39 29° ESE
Cosmos 468 4.4 20:59:19 10° NNW 21:04:34 80° ENE 21:08:48 16° SSE
Cosmos 1408 Rocket 3.7 21:01:41 10° N 21:06:03 49° E 21:07:46 32° SE
Cosmos 2278 Rocket 3.8 21:00:58 10° SW 21:06:11 38° WNW 21:11:27 10° N
Cosmos 1544 4.0 21:02:51 10° SSW 21:06:23 50° W 21:09:58 10° N
Cosmos 372 Rocket 3.8 21:05:09 10° SSW 21:10:14 85° ESE 21:15:24 10° NNE
Spot 1 4.2 21:07:43 22° SSE 21:10:38 69° ENE 21:15:29 10° N
CZ-4B DEB 3.9 21:12:04 30° NNE 21:12:04 30° NNE 21:14:00 10° N
Cosmos 2098 Rocket 4.4 21:04:25 10° S 21:11:30 87° W 21:19:11 10° N
Cosmos 1733 3.3 21:10:59 45° SE 21:11:37 51° E 21:15:24 10° NNE
Cosmos 1459 Rocket 4.0 21:06:18 10° SSE 21:12:22 54° E 21:18:24 10° NNE
Cosmos 1340 Rocket 3.8 21:09:16 10° NNE 21:12:09 30° NE 21:12:09 30° NE
Cosmos 1447 Rocket 4.4 21:07:48 10° N 21:13:59 85° E 21:20:08 10° S
ATLAS 5 CENTAUR R/B 1.6 21:12:48 10° SSW 21:17:25 86° ESE 21:22:25 10° NNE
Cosmos 2173 Rocket 3.9 21:12:07 10° S 21:18:07 60° E 21:24:16 10° NNE
ISS -3.9 21:15:08 10° SW 21:18:22 84° NW 21:18:25 84° NNW
USA 215 3.1 21:12:45 10° NE 21:19:15 69° SE 21:25:44 10° SW
H-2A R/B 4.4 21:17:20 10° SSW 21:20:53 34° W 21:24:29 10° NNW
Cosmos 158 Rocket 3.9 21:16:01 10° N 21:21:08 63° ENE 21:22:45 42° SE
H-II Stage 2 3.3 21:19:52 10° SW 21:20:30 15° SW 21:20:30 15° SW
Cosmos 2297 4.2 21:16:18 10° SSW 21:21:56 63° WNW 21:27:38 10° NNE
Cosmos 1867 4.2 21:19:06 10° SW 21:24:26 56° WNW 21:29:49 10° NNE
Tiangong 1 2.8 21:23:49 10° W 21:25:54 24° SW 21:25:54 24° SW
Aurora 2 Rocket 4.3 21:21:55 10° SW 21:27:22 26° S 21:28:04 26° S
Abrixas 3.9 21:25:13 10° NW 21:26:58 33° NW 21:26:58 33° NW
Helios 1B rocket 3.2 21:29:56 10° N 21:33:56 52° WNW 21:37:56 10° SSW
Cosmos 1076 Rocket 4.4 21:31:05 10° NNW 21:35:09 47° W 21:38:07 17° SSW
Cosmos 2082 Rocket 2.1 21:33:36 10° NNW 21:39:19 84° WSW 21:41:10 45° SSE
Cosmos 1953 4.4 21:35:48 10° SW 21:39:19 28° WNW 21:42:51 10° NNW
Meteor 2-17 Rocket 4.3 21:40:14 38° SSE 21:42:39 67° E 21:48:44 10° NNE
GP-B 4.0 21:40:05 12° SSW 21:43:57 48° W 21:48:15 10° NNW
Envisat 2.9 21:42:59 53° S 21:44:12 85° WSW 21:49:19 10° NNW
Meteor 1-16 Rocket 4.2 21:44:17 61° ESE 21:44:27 61° E 21:50:17 10° NNE
Cosmos 1939 Rocket 3.3 21:45:32 59° N 21:45:32 59° N 21:48:56 10° N
Helios 1A 3.9 21:43:23 30° SSW 21:44:58 44° W 21:48:59 10° NNW
Cosmos 1271 Rocket 3.8 21:45:01 16° SSW 21:48:00 46° W 21:51:54 10° N
Resurs 01 Rocket 4.2 21:46:42 10° SW 21:49:52 19° W 21:53:03 10° NW
Cosmos 2016 Rocket 3.8 21:47:01 34° S 21:49:52 78° E 21:56:03 10° N
H-2A R/B 4.3 21:52:51 12° NNE 21:52:51 12° NNE 21:53:30 10° NNE
Cosmos 1725 Rocket 4.2 21:59:09 53° NE 21:59:09 53° NE 22:04:09 10° NNE
ERS-1 Rocket 3.4 22:03:22 52° N 22:03:22 52° N 22:07:14 10° N
Lacrosse 5 rocket 3.3 22:00:50 10° NNW 22:02:25 22° NNW 22:02:25 22° NNW
SL-08 R/B 4.5 22:10:08 66° SSW 22:11:07 85° W 22:17:34 10° N
Tsikada Rocket 4.4 22:12:44 10° N 22:17:28 52° NNE 22:17:28 52° NNE
